Wind_Speed
69 67 66 66 65 65 64 65 64 63 62 62 59 59 57 54 50 50 52 52 52 52 53 54 54 53 51 51 47 55 51 52 54 54 55 54 53 49 43 41 40 40 41 38 37 37 40
74 71 71 70 68 67 67 66 65 64 63 60 61 60 58 59 55 56 57 59 63 58 55 57 57 56 53 53 54 56 54 54 56 56 54 47 47 46 44 45 42 38 44 36 38 39 40
79 75 80 71 70 69 69 69 69 69 65 65 62 61 62 62 63 64 61 60 57 58 69 65 66 64 62 52 56 59 59 59 56 53 47 43 44 47 46 43 42 38 37 38 34 35 39
71 73 75 82 83 82 83 76 73 73 71 69 67 66 65 66 65 66 65 63 66 66 71 70 71 71 72 60 66 64 66 61 58 53 50 46 45 45 45 43 38 37 36 35 28 34 38
74 65 65 68 73 83 83 84 81 78 78 76 75 75 74 74 72 71 71 69 71 69 68 73 73 75 70 67 66 66 63 59 56 51 49 46 44 44 43 39 39 35 37 34 33 32 38
68 67 66 63 66 70 67 77 85 87 86 83 83 84 80 81 80 80 80 77 79 81 79 79 80 74 70 72 65 60 54 51 49 49 47 44 46 45 40 38 37 34 34 31 32 24 39
74 73 74 72 73 74 71 69 68 71 76 76 88 88 88 86 80 83 83 87 85 86 81 75 73 71 72 66 63 59 56 50 49 51 43 43 46 43 33 37 37 37 35 32 35 35 35
71 74 74 69 64 62 66 70 70 71 71 76 72 70 75 75 72 74 77 75 78 76 71 66 64 64 60 59 60 55 52 47 46 45 40 42 41 32 32 35 36 38 35 31 32 32 38
76 75 72 69 68 66 63 60 64 73 72 67 69 71 69 66 65 64 64 65 66 64 66 64 59 55 57 59 56 55 47 46 44 43 41 38 37 37 32 34 36 37 36 34 35 35 37
76 74 75 74 72 69 66 66 63 60 65 69 60 60 62 61 64 65 66 65 62 63 66 64 60 59 56 55 58 50 44 47 45 43 39 39 38 37 38 37 37 38 37 39 38 41 40
76 75 74 73 72 72 70 67 66 67 64 70 62 59 55 58 58 51 52 54 55 55 55 60 61 55 52 53 52 51 48 48 45 39 42 36 39 41 44 42 44 42 42 44 44 44 41
74 74 74 74 71 73 72 72 71 70 70 69 58 52 57 59 50 51 33 39 36 36 49 51 56 53 52 50 50 52 49 48 46 45 44 43 40 44 47 45 45 45 48 48 48 47 47
73 72 71 71 71 70 70 71 70 72 72 72 71 80 75 74 63 61 52 51 48 46 36 42 47 51 51 51 48 46 48 49 48 47 45 41 45 42 47 51 49 47 47 49 51 53 47
61 66 65 65 68 69 68 67 66 67 68 71 72 75 75 71 70 68 71 50 51 61 49 46 47 44 43 41 41 44 45 48 43 44 42 49 48 44 40 47 49 46 45 48 45 47 49
61 52 59 56 52 60 63 62 64 56 60 62 64 66 67 64 60 61 63 60 51 47 47 47 45 48 43 42 42 43 42 42 41 44 46 47 46 46 45 48 53 47 48 44 44 49 53
60 66 58 59 57 56 62 59 58 63 62 64 63 60 61 57 51 48 50 52 54 52 53 51 48 44 44 43 46 46 46 46 44 42 50 52 55 50 52 53 53 51 43 44 40 47 50
54 61 77 63 57 67 71 70 63 62 65 61 56 58 56 56 57 58 57 50 53 58 59 59 53 49 47 50 54 54 54 54 50 50 52 54 52 50 50 54 54 48 49 45 48 52 50
43 53 63 74 79 68 72 72 73 69 74 57 64 63 57 59 63 66 61 59 60 66 66 67 56 52 59 60 63 62 58 57 56 54 54 52 53 52 51 48 52 53 49 53 55 56 53
38 42 50 62 70 82 82 72 65 71 70 67 69 72 57 55 59 50 64 67 67 71 59 62 56 55 55 59 62 63 61 51 56 52 51 53 52 52 52 50 49 55 49 55 54 53 53
35 36 39 45 48 59 64 70 79 83 82 70 70 63 48 57 55 45 50 60 66 70 60 56 58 61 57 57 54 53 52 50 52 53 52 49 51 52 54 55 53 53 45 50 44 46 42
41 42 43 40 43 46 48 51 62 60 57 64 60 52 53 55 54 51 60 54 59 65 63 59 61 54 52 48 49 51 50 47 52 51 48 49 51 50 51 49 50 50 50 48 45 38 41
35 41 44 44 43 43 44 43 47 51 47 47 46 45 55 58 59 60 65 65 63 63 58 55 52 50 49 52 52 50 48 47 48 49 50 50 51 49 50 48 50 48 44 45 52 53 60
36 39 42 42 42 42 43 46 46 44 46 47 44 44 48 55 62 62 63 59 62 60 55 55 57 58 52 56 60 60 56 52 52 51 52 52 50 48 49 46 48 47 46 47 50 50 50
39 39 39 39 40 42 42 41 42 42 42 44 47 45 49 49 51 58 68 63 53 52 54 54 60 57 60 62 67 65 62 57 58 56 60 56 56 51 46 43 47 41 39 43 46 45 43
37 38 40 40 41 40 39 39 40 40 41 43 45 47 50 50 51 53 58 62 64 65 66 62 57 57 58 56 47 57 60 61 63 62 63 63 57 56 56 55 51 46 37 39 44 41 37
36 37 37 36 37 35 35 34 34 35 36 38 39 40 44 46 46 50 53 54 56 60 64 64 69 63 58 54 52 49 55 61 60 67 65 59 60 59 59 61 60 49 42 44 42 41 35
34 33 33 33 33 32 31 29 29 29 29 30 31 31 33 34 33 36 37 40 42 47 56 61 65 65 72 73 64 59 57 50 52 39 43 52 54 52 52 54 52 46 43 42 45 47 37
34 33 34 33 32 31 30 29 29 28 28 28 29 29 29 30 30 31 31 32 34 36 38 42 48 52 51 56 59 59 69 57 52 56 55 56 50 54 51 52 55 45 45 52 45 39 42
38 36 34 30 33 35 33 32 31 31 32 33 33 33 32 31 29 29 29 31 31 32 35 38 41 41 41 33 27 26 35 52 64 54 48 53 49 51 55 56 47 40 45 42 44 45 37
Wind_Direction
242 243 246 246 247 248 248 248 250 249 250 251 253 252 253 251 254 262 263 264 268 266 266 266 268 269 270 273 276 275 281 287 289 291 290 289 291 289 292 293 291 291 287 284 284 272 273
241 242 244 247 248 248 249 250 250 249 249 249 251 251 251 253 255 262 264 263 264 266 272 270 269 268 269 273 274 275 282 287 289 289 289 286 286 286 290 290 293 285 285 284 276 278 273
252 252 240 241 244 247 250 251 251 252 252 252 253 253 254 253 255 261 261 261 263 264 270 274 271 270 269 275 275 277 281 284 286 286 285 285 286 289 290 290 287 287 279 279 280 276 270
252 253 252 248 247 245 245 247 254 253 253 252 254 254 255 255 257 261 263 260 262 264 271 267 269 268 267 272 274 280 281 281 283 283 284 285 286 289 290 289 289 281 279 281 280 274 274
248 244 247 248 252 253 254 251 245 251 255 254 255 255 256 257 259 260 261 262 263 262 263 268 270 268 271 272 275 275 280 278 279 279 281 282 283 286 283 285 281 282 282 279 278 268 270
238 239 240 246 247 251 253 255 251 249 250 253 255 256 257 261 261 261 260 261 261 264 266 267 269 271 272 274 274 274 275 276 274 277 279 284 283 281 282 283 280 275 273 279 275 263 277
248 249 249 251 248 252 253 254 248 252 258 257 255 255 259 264 262 262 262 260 263 266 268 267 268 267 270 269 269 273 272 270 272 274 277 277 278 284 280 275 271 268 265 267 273 270 270
251 254 253 253 255 255 255 250 251 249 254 255 256 258 257 261 261 260 261 262 263 262 265 264 265 266 267 269 266 264 268 269 269 271 269 271 277 279 274 270 271 270 269 271 272 266 264
251 252 253 253 255 257 257 258 255 253 253 253 256 260 256 259 260 264 259 261 261 260 261 260 265 263 267 264 265 265 264 267 268 267 267 272 275 274 265 268 267 271 273 270 272 268 265
247 248 251 252 253 251 251 255 257 250 253 256 251 247 246 250 254 254 256 259 255 259 264 266 266 262 263 264 263 263 262 264 261 263 268 269 267 267 270 265 264 266 269 269 267 270 276
246 246 248 248 250 252 251 250 249 252 251 250 242 251 250 251 247 250 255 255 256 258 261 263 265 264 262 263 261 257 259 261 261 262 261 268 262 262 263 264 262 263 260 261 264 268 271
247 247 247 247 247 250 251 252 252 251 250 248 236 235 255 250 246 239 254 250 256 264 260 257 261 262 262 260 258 259 258 259 260 259 260 263 262 264 267 267 265 265 259 260 263 264 264
247 247 248 248 248 249 251 251 252 252 253 253 251 256 261 263 253 251 260 261 268 267 270 268 265 263 264 263 260 258 256 258 260 260 263 262 261 255 259 264 264 261 262 261 261 262 268
245 245 246 249 248 247 249 250 252 254 254 254 255 258 260 260 258 253 266 273 262 276 273 259 270 266 258 264 264 261 258 257 258 260 257 260 257 259 254 258 262 259 255 257 260 262 266
233 236 227 241 239 244 246 248 250 246 238 250 255 258 261 265 265 262 261 260 254 269 263 249 256 269 267 264 264 263 261 260 259 258 256 256 258 255 255 257 258 260 258 261 260 258 259
233 220 228 218 230 232 235 241 224 226 240 251 254 256 258 261 256 253 254 256 258 253 240 239 242 254 259 258 256 257 261 263 256 246 252 254 253 250 253 255 257 259 257 256 250 259 260
236 231 222 221 213 227 215 219 227 240 242 244 248 249 250 245 236 245 244 255 242 235 234 232 235 237 247 253 254 257 263 263 261 255 256 257 257 252 246 255 253 257 258 255 255 254 255
233 236 231 235 232 224 220 213 219 227 225 231 237 247 239 238 238 245 241 242 238 232 232 232 241 257 260 260 262 261 261 257 262 261 254 253 254 255 253 252 257 259 260 259 252 254 257
254 241 234 234 235 240 235 227 231 218 217 222 226 227 228 229 232 243 238 233 236 232 243 241 252 261 262 261 260 257 259 255 258 259 257 256 256 256 254 256 251 256 254 262 263 263 261
255 251 256 255 245 244 247 246 245 242 245 247 242 256 250 244 244 235 233 240 245 238 250 259 263 264 264 261 260 260 260 258 258 260 260 260 261 262 263 262 261 260 253 262 264 262 267
247 255 256 255 256 258 258 249 244 247 249 252 251 244 240 246 249 240 233 252 248 253 262 264 270 265 263 258 259 257 258 257 261 262 259 259 262 263 264 262 262 260 259 257 258 253 255
260 249 254 257 258 254 253 256 258 249 241 244 247 241 235 229 228 230 240 231 244 251 256 261 253 245 252 257 255 253 253 255 259 264 260 260 260 260 263 265 266 263 260 262 260 263 266
264 268 265 265 264 261 259 258 257 258 259 252 243 243 234 229 225 232 235 239 239 241 254 244 240 242 243 251 248 249 249 250 256 258 260 264 266 262 263 265 267 267 273 268 269 267 268
255 252 253 254 253 253 251 249 251 254 254 252 249 247 250 246 240 236 238 233 228 236 241 240 240 240 246 253 251 248 247 249 251 244 254 260 262 264 266 264 265 280 277 273 274 277 274
250 246 244 246 249 250 250 245 241 241 241 241 241 242 244 244 246 247 246 245 245 247 247 241 240 237 236 238 243 249 250 252 256 252 253 258 256 258 260 263 272 274 276 275 276 272 274
253 251 249 248 249 250 247 244 243 242 242 243 243 245 243 243 243 245 246 249 249 249 248 247 238 241 240 241 243 242 245 253 255 256 253 252 253 256 260 264 267 276 272 273 271 267 272
250 248 246 245 245 245 243 241 240 241 242 244 243 246 248 248 250 249 253 252 252 251 249 247 248 249 248 247 242 248 248 242 237 239 247 252 255 260 262 265 270 273 272 267 263 276 266
249 247 243 242 241 240 238 238 238 239 240 243 246 248 250 250 252 256 258 261 263 265 263 258 255 255 261 261 257 248 243 243 243 246 250 255 254 262 261 261 264 278 261 259 265 261 270
251 248 242 241 240 240 240 240 240 242 246 248 249 252 254 254 254 255 256 260 262 263 266 263 263 263 267 265 264 264 258 249 243 249 245 245 247 253 256 266 267 259 265 264 265 261 263
Height
5749 5754 5758 5762 5766 5771 5774 5777 5781 5783 5786 5790 5793 5796 5800 5803 5804 5807 5809 5811 5812 5813 5815 5817 5819 5820 5821 5821 5826 5818 5822 5822 5822 5821 5820 5820 5819 5817 5817 5817 5815 5815 5815 5816 5815 5813 5812
5732 5738 5744 5750 5754 5758 5762 5766 5769 5772 5775 5778 5782 5785 5788 5792 5794 5796 5797 5800 5802 5803 5804 5807 5808 5810 5812 5815 5813 5812 5814 5814 5813 5812 5812 5810 5810 5810 5809 5808 5807 5808 5804 5808 5806 5805 5804
5719 5723 5728 5733 5739 5744 5748 5753 5757 5761 5763 5767 5770 5773 5776 5779 5781 5784 5786 5788 5790 5791 5794 5796 5797 5797 5799 5809 5803 5803 5804 5804 5804 5804 5803 5801 5801 5802 5800 5800 5797 5798 5796 5796 5797 5798 5795
5703 5708 5713 5719 5724 5728 5732 5738 5742 5746 5751 5754 5757 5760 5763 5766 5768 5771 5773 5774 5777 5779 5780 5784 5785 5783 5785 5794 5792 5794 5791 5794 5794 5795 5795 5792 5790 5791 5791 5790 5789 5788 5789 5789 5792 5789 5788
5690 5695 5699 5704 5708 5712 5716 5720 5725 5733 5738 5741 5744 5746 5748 5752 5755 5757 5759 5761 5764 5766 5767 5768 5771 5770 5772 5780 5782 5783 5784 5782 5782 5784 5784 5784 5783 5783 5781 5782 5780 5782 5782 5782 5782 5783 5780
5677 5682 5687 5690 5694 5699 5703 5705 5711 5715 5720 5723 5727 5730 5733 5738 5740 5744 5746 5747 5748 5751 5753 5754 5757 5760 5764 5762 5766 5771 5772 5772 5772 5772 5772 5775 5772 5771 5775 5774 5773 5774 5773 5773 5775 5778 5772
5663 5668 5672 5678 5683 5685 5691 5694 5699 5702 5702 5705 5710 5716 5718 5721 5724 5726 5730 5732 5733 5737 5738 5743 5742 5747 5749 5749 5754 5756 5759 5761 5761 5762 5764 5762 5761 5764 5767 5764 5764 5764 5766 5768 5769 5770 5769
5647 5653 5658 5664 5668 5672 5678 5681 5686 5687 5691 5695 5696 5697 5702 5707 5708 5710 5713 5716 5718 5719 5723 5727 5729 5731 5740 5739 5737 5744 5746 5749 5750 5751 5752 5752 5753 5758 5756 5756 5757 5756 5758 5760 5762 5763 5763
5633 5637 5643 5649 5655 5659 5666 5670 5673 5675 5677 5683 5684 5686 5688 5691 5693 5697 5699 5703 5702 5704 5705 5715 5720 5724 5722 5722 5728 5730 5733 5737 5738 5741 5741 5743 5745 5744 5749 5748 5750 5750 5751 5752 5752 5752 5753
5616 5621 5626 5633 5639 5645 5650 5658 5661 5663 5665 5669 5671 5673 5677 5680 5683 5684 5686 5689 5693 5692 5692 5702 5706 5709 5711 5712 5714 5720 5722 5724 5727 5730 5733 5733 5734 5736 5738 5741 5742 5741 5744 5743 5742 5742 5744
5599 5606 5612 5617 5624 5629 5634 5640 5644 5650 5654 5655 5658 5662 5665 5668 5670 5674 5678 5679 5681 5682 5682 5686 5690 5694 5697 5701 5704 5708 5711 5711 5717 5720 5720 5727 5724 5726 5727 5730 5730 5734 5732 5731 5732 5731 5735
5583 5589 5597 5602 5609 5613 5619 5624 5629 5633 5640 5646 5646 5650 5654 5659 5662 5664 5665 5669 5672 5673 5672 5673 5679 5681 5684 5688 5692 5695 5698 5701 5705 5705 5707 5712 5715 5715 5717 5719 5720 5723 5722 5722 5722 5721 5723
5567 5573 5580 5587 5594 5599 5603 5608 5613 5620 5623 5628 5634 5637 5640 5647 5653 5654 5657 5658 5660 5661 5669 5664 5668 5673 5673 5676 5679 5684 5688 5690 5693 5694 5697 5700 5702 5705 5706 5706 5708 5710 5712 5713 5710 5706 5715
5550 5557 5565 5569 5576 5582 5587 5593 5598 5604 5609 5612 5616 5620 5624 5631 5637 5643 5641 5642 5642 5653 5656 5651 5659 5662 5663 5665 5669 5672 5675 5679 5681 5683 5684 5686 5690 5692 5697 5696 5696 5698 5698 5701 5698 5698 5705
5541 5549 5551 5555 5560 5565 5570 5578 5583 5590 5593 5596 5601 5604 5609 5614 5618 5624 5628 5628 5636 5641 5643 5642 5645 5652 5655 5656 5660 5660 5665 5668 5670 5671 5674 5675 5678 5677 5680 5684 5686 5690 5685 5691 5687 5688 5686
5524 5534 5540 5543 5545 5550 5556 5562 5569 5572 5578 5584 5588 5591 5596 5600 5603 5606 5608 5617 5627 5628 5629 5631 5633 5638 5642 5646 5646 5649 5653 5654 5659 5661 5659 5660 5663 5666 5667 5673 5672 5674 5680 5678 5676 5673 5674
5511 5519 5525 5527 5530 5539 5541 5545 5550 5559 5567 5570 5574 5577 5583 5586 5588 5589 5595 5607 5612 5612 5613 5620 5624 5624 5629 5633 5634 5639 5642 5642 5647 5647 5649 5647 5652 5663 5655 5661 5661 5665 5663 5663 5663 5663 5663
5498 5505 5510 5515 5518 5521 5527 5527 5533 5540 5548 5553 5559 5563 5571 5570 5573 5573 5588 5597 5596 5599 5598 5602 5606 5608 5614 5619 5618 5625 5629 5624 5634 5636 5638 5636 5638 5643 5646 5649 5647 5648 5650 5649 5646 5650 5650
5488 5492 5498 5503 5507 5509 5511 5515 5518 5524 5532 5536 5541 5547 5551 5556 5557 5562 5571 5578 5578 5585 5581 5585 5592 5598 5601 5604 5602 5611 5611 5611 5621 5623 5624 5622 5623 5629 5632 5637 5635 5632 5637 5635 5635 5637 5637
5481 5485 5489 5491 5493 5495 5496 5501 5506 5509 5513 5521 5526 5529 5536 5538 5544 5552 5554 5558 5560 5568 5568 5570 5577 5582 5588 5590 5592 5595 5597 5599 5605 5608 5611 5610 5610 5615 5618 5618 5621 5622 5625 5624 5624 5623 5624
5471 5475 5479 5481 5486 5489 5490 5490 5493 5497 5500 5506 5511 5517 5525 5527 5530 5537 5540 5544 5547 5553 5552 5560 5561 5568 5572 5574 5577 5579 5584 5587 5588 5593 5598 5597 5598 5601 5602 5604 5606 5608 5610 5613 5611 5613 5608
5461 5466 5468 5470 5473 5477 5480 5481 5481 5483 5488 5493 5497 5505 5509 5513 5514 5522 5523 5528 5533 5536 5542 5544 5547 5551 5556 5560 5564 5566 5568 5572 5573 5577 5582 5584 5585 5588 5588 5592 5590 5593 5598 5600 5599 5603 5598
5450 5453 5456 5458 5461 5464 5468 5471 5473 5474 5475 5479 5486 5490 5493 5500 5503 5507 5512 5517 5522 5522 5527 5532 5534 5537 5542 5546 5547 5549 5554 5560 5564 5566 5570 5572 5574 5577 5575 5581 5579 5577 5590 5588 5587 5588 5586
5439 5442 5443 5445 5448 5451 5454 5457 5460 5463 5467 5470 5474 5479 5477 5483 5491 5496 5499 5502 5506 5509 5514 5519 5521 5522 5525 5530 5534 5536 5541 5546 5549 5556 5558 5563 5564 5567 5565 5566 5562 5575 5577 5575 5572 5572 5573
5427 5430 5432 5434 5437 5440 5443 5446 5449 5452 5456 5460 5463 5467 5469 5475 5476 5482 5485 5486 5490 5494 5501 5505 5511 5510 5510 5518 5521 5521 5528 5529 5534 5543 5545 5552 5554 5553 5552 5553 5557 5559 5570 5568 5561 5563 5566
5415 5418 5421 5424 5427 5430 5434 5437 5440 5443 5446 5449 5453 5454 5459 5463 5467 5469 5471 5471 5474 5478 5485 5496 5497 5493 5498 5504 5509 5506 5510 5516 5519 5524 5535 5537 5539 5540 5541 5539 5542 5557 5561 5557 5553 5546 5559
5405 5408 5411 5414 5418 5421 5425 5429 5432 5435 5438 5441 5445 5447 5450 5454 5457 5458 5458 5460 5463 5466 5472 5478 5477 5477 5481 5490 5493 5496 5498 5505 5504 5510 5517 5521 5524 5523 5527 5525 5530 5546 5548 5540 5539 5547 5544
5394 5398 5402 5406 5410 5414 5418 5422 5426 5429 5432 5435 5438 5440 5443 5446 5448 5449 5451 5454 5456 5457 5459 5463 5462 5467 5468 5472 5475 5481 5480 5488 5488 5498 5504 5510 5512 5512 5516 5515 5517 5539 5531 5525 5536 5530 5532
5384 5388 5393 5396 5401 5406 5410 5415 5418 5422 5425 5428 5431 5433 5435 5438 5442 5442 5445 5446 5447 5448 5449 5450 5452 5458 5462 5460 5461 5462 5464 5470 5477 5478 5491 5490 5498 5502 5502 5504 5514 5519 5517 5519 5517 5519 5523